TimeEST,TemperatureF,Dew PointF,Humidity,Sea Level PressureIn,VisibilityMPH,Wind Direction,Wind SpeedMPH,Gust SpeedMPH,PrecipitationIn,Events,Conditions,WindDirDegrees,DateUTC
12:53 AM,39.0,24.1,55,30.30,10.0,NNW,9.2,-,N/A,,Clear,330,2013-03-09 05:53:00
1:53 AM,37.9,24.1,57,30.30,10.0,NW,6.9,-,N/A,,Clear,310,2013-03-09 06:53:00
2:53 AM,36.0,24.1,62,30.27,10.0,NNW,6.9,-,N/A,,Clear,340,2013-03-09 07:53:00
3:53 AM,34.0,24.1,67,30.27,10.0,NNW,5.8,-,N/A,,Clear,330,2013-03-09 08:53:00
4:53 AM,33.1,23.0,66,30.28,10.0,North,3.5,-,N/A,,Clear,10,2013-03-09 09:53:00
5:53 AM,30.0,23.0,75,30.29,10.0,NW,3.5,-,N/A,,Clear,320,2013-03-09 10:53:00
6:53 AM,30.0,23.0,75,30.31,10.0,Calm,Calm,-,N/A,,Clear,0,2013-03-09 11:53:00
7:53 AM,39.0,26.1,60,30.32,10.0,Calm,Calm,-,N/A,,Clear,0,2013-03-09 12:53:00
8:53 AM,45.0,27.0,49,30.34,10.0,North,6.9,-,N/A,,Clear,350,2013-03-09 13:53:00
9:53 AM,50.0,24.1,36,30.34,10.0,NE,5.8,-,N/A,,Clear,40,2013-03-09 14:53:00
10:53 AM,53.1,25.0,34,30.33,10.0,Variable,3.5,-,N/A,,Clear,0,2013-03-09 15:53:00
11:53 AM,57.0,27.0,32,30.31,10.0,Variable,6.9,39.1,N/A,,Clear,0,2013-03-09 16:53:00
12:53 PM,60.1,27.0,28,30.30,10.0,North,-9999.0,-,N/A,,Clear,0,2013-03-09 17:53:00
1:53 PM,61.0,26.1,26,30.27,10.0,Calm,Calm,-,N/A,,Clear,0,2013-03-09 18:53:00
2:53 PM,61.0,24.1,24,30.25,10.0,Variable,3.5,-,N/A,,Clear,0,2013-03-09 19:53:00
3:53 PM,62.1,21.9,21,30.24,10.0,Variable,3.5,-,N/A,,Clear,0,2013-03-09 20:53:00
4:53 PM,63.0,21.9,21,30.24,10.0,Calm,Calm,-,N/A,,Clear,0,2013-03-09 21:53:00
5:53 PM,60.1,24.1,25,30.24,10.0,Calm,Calm,-,N/A,,Clear,0,2013-03-09 22:53:00
6:53 PM,48.9,25.0,39,30.26,10.0,Calm,Calm,-,N/A,,Clear,0,2013-03-09 23:53:00
7:53 PM,45.0,28.0,52,30.26,10.0,Calm,Calm,-,N/A,,Clear,0,2013-03-10 00:53:00
8:53 PM,43.0,28.0,56,30.27,10.0,Calm,Calm,-,N/A,,Clear,0,2013-03-10 01:53:00
9:53 PM,41.0,28.9,62,30.28,10.0,Calm,Calm,-,N/A,,Clear,0,2013-03-10 02:53:00
10:53 PM,39.9,28.0,63,30.28,10.0,Calm,Calm,-,N/A,,Clear,0,2013-03-10 03:53:00
11:53 PM,35.1,26.1,70,30.29,10.0,Calm,Calm,-,N/A,,Clear,0,2013-03-10 04:53:00